Location: *
(34.8620°S, 39.3380°E)
Time: 09:48:52
(UTC+00:00)

ATLAS 5 CENTAUR R/B - Pass Details

Date: 27 July 2021
Orbit: 509 x 1148 km, 63.4° (Epoch: 20 September)

Event Time Altitude Azimuth Distance (km) Brightness Sun altitude
Exits shadow 03:21:47 13° 235° (SW) 2,714 4.2 -12.3°
Maximum altitude 03:23:33 15° 219° (SW) 2,603 4.3 -11.9°
Drops below altitude 10° 03:27:09 10° 187° (S) 2,849 4.7 -11.2°
Sets 03:31:07 0° 163° (SSE) 3,677 5.5 -10.4°
